Weather History for KFLO - May, 2013

Change the Weather History Date:

Sunday, May 12, 2013

  Actual Average Record
Temperature  
Mean Temperature 70 °F 70 °F  
Max Temperature 81 °F 82 °F 94 °F (2000)
Min Temperature 59 °F 58 °F 42 °F (1969)
Degree Days  
Heating Degree Days 0 1  
Month to date heating degree days 12 16  
Since 1 July heating degree days 2323 2516  
Cooling Degree Days 5 6  
Month to date cooling degree days 30 58  
Year to date cooling degree days 125 154  
Growing Degree Days 23 (Base 50)    
Moisture  
Dew Point 52 °F    
Average Humidity 56    
Maximum Humidity 81    
Minimum Humidity 30    
Precipitation  
Precipitation 0.00 in 0.10 in 1.81 in (2007)
Month to date precipitation 0.58 1.08  
Year to date precipitation 14.55 13.18  
Sea Level Pressure  
Sea Level Pressure 29.89 in    
Wind  
Wind Speed 7 mph (WNW)    
Max Wind Speed 16 mph    
Max Gust Speed 23 mph    
Visibility 10 miles    
Events      
T = Trace of Precipitation, MM = Missing Value Source: NWS Daily Summary

Daily Weather History Graph

Daily Weather History Graph

Search for Another Location

Airport or City:

Trip Planner

Search our weather history database for the weather conditions in past years. The results will help you decide how hot, cold, wet, or windy it might be!

Date:

Astronomy

May. 12, 2013 Rise Set
Actual Time 6:19 AM EDT 8:11 PM EDT
Civil Twilight 5:51 AM EDT 8:39 PM EDT
Nautical Twilight 5:18 AM EDT 9:12 PM EDT
Astronomical Twilight 4:42 AM EDT 9:48 PM EDT
Moon 8:14 AM EDT (5/12) 10:36 PM EDT (5/12)
Length of Visible Light 14h 47m
Length of Day
13h 52m
Waxing Crescent, 6% of the Moon is Illuminated
May 12
Waxing Crescent
May 18
First Quarter
May 25
Full
May 31
Last Quarter
Jun 8
New

Hourly Weather History & Observations

Time (EDT) Temp. Dew Point Humidity Pressure Visibility Wind Dir Wind Speed Gust Speed Precip Events Conditions
12:53 AM 72.0 °F 63.0 °F 73% 29.85 in 10.0 mi SW 5.8 mph - N/A   Partly Cloudy
1:53 AM 72.0 °F 63.0 °F 73% 29.83 in 10.0 mi SW 4.6 mph - N/A   Mostly Cloudy
2:53 AM 72.0 °F 63.0 °F 73% 29.82 in 10.0 mi WSW 9.2 mph - N/A   Mostly Cloudy
3:53 AM 70.0 °F 63.0 °F 78% 29.83 in 10.0 mi West 3.5 mph - N/A   Clear
4:53 AM 68.0 °F 62.1 °F 81% 29.82 in 10.0 mi SSW 3.5 mph - N/A   Mostly Cloudy
5:53 AM 68.0 °F 63.0 °F 84% 29.84 in 10.0 mi West 4.6 mph - N/A   Mostly Cloudy
6:53 AM 68.0 °F 61.0 °F 78% 29.86 in 10.0 mi WNW 5.8 mph - N/A   Partly Cloudy
7:53 AM 69.1 °F 60.1 °F 73% 29.88 in 10.0 mi NNW 11.5 mph - N/A   Clear
8:53 AM 72.0 °F 54.0 °F 53% 29.89 in 10.0 mi North 12.7 mph - N/A   Clear
9:53 AM 73.0 °F 51.1 °F 46% 29.90 in 10.0 mi North 10.4 mph - N/A   Partly Cloudy
10:53 AM 73.9 °F 50.0 °F 43% 29.91 in 10.0 mi North 5.8 mph - N/A   Partly Cloudy
11:53 AM 75.9 °F 48.9 °F 38% 29.91 in 10.0 mi NNW 10.4 mph 16.1 mph N/A   Clear
12:53 PM 78.1 °F 51.1 °F 39% 29.90 in 10.0 mi WNW 9.2 mph - N/A   Clear
1:53 PM 78.1 °F 48.9 °F 36% 29.90 in 10.0 mi NW 6.9 mph - N/A   Clear
2:53 PM 78.1 °F 48.9 °F 36% 29.89 in 10.0 mi West 5.8 mph - N/A   Scattered Clouds
3:53 PM 80.1 °F 46.9 °F 31% 29.86 in 10.0 mi WNW 12.7 mph 20.7 mph N/A   Clear
4:53 PM 78.1 °F 46.9 °F 33% 29.87 in 10.0 mi West 8.1 mph 18.4 mph N/A   Partly Cloudy
5:53 PM 79.0 °F 46.9 °F 32% 29.88 in 10.0 mi WNW 10.4 mph - N/A   Mostly Cloudy
6:53 PM 77.0 °F 46.0 °F 33% 29.89 in 10.0 mi NW 6.9 mph - N/A   Scattered Clouds
7:53 PM 75.0 °F 46.0 °F 36% 29.91 in 10.0 mi WNW 4.6 mph - N/A   Mostly Cloudy
8:53 PM 71.1 °F 44.1 °F 38% 29.94 in 10.0 mi Calm Calm - N/A   Mostly Cloudy
9:53 PM 66.9 °F 43.0 °F 42% 29.96 in 10.0 mi NNW 6.9 mph - N/A   Scattered Clouds
10:53 PM 66.0 °F 41.0 °F 40% 29.99 in 10.0 mi NNE 4.6 mph - N/A   Clear
11:53 PM 62.1 °F 42.1 °F 48% 30.00 in 10.0 mi North 6.9 mph - N/A   Scattered Clouds